Location: Fours
(44.3167°N, 6.7000°E)
Time: 12:05:17
(UTC+00:00)

Cosmos 2227 - Pass Details

Date: 30 May 2022
Orbit: 833 x 863 km, 71.0° (Epoch: 28 June)

Event Time Altitude Azimuth Distance (km) Brightness Sun altitude
Rises 21:48:33 0° 322° (NW) 3,447 8.8 -19.8°
Reaches altitude 10° 21:51:33 10° 307° (NW) 2,507 7.6 -20.0°
Maximum altitude 21:55:47 22° 260° (W) 1,817 6.0 -20.3°
Enters shadow 21:59:07 13° 219° (SW) 2,262 6.1 -20.6°
